TimeEDT,TemperatureF,Dew PointF,Humidity,Sea Level PressureIn,VisibilityMPH,Wind Direction,Wind SpeedMPH,Gust SpeedMPH,PrecipitationIn,Events,Conditions,WindDirDegrees,DateUTC
12:24 AM,30.2,24.8,80,30.01,10.0,Calm,Calm,-,N/A,,Overcast,0,2013-03-17 04:24:00
12:53 AM,30.0,24.1,79,30.04,10.0,Calm,Calm,-,N/A,,Overcast,0,2013-03-17 04:53:00
1:53 AM,30.0,25.0,82,30.05,10.0,WSW,5.8,-,N/A,,Overcast,250,2013-03-17 05:53:00
2:28 AM,30.2,24.8,80,30.03,10.0,WSW,4.6,-,N/A,,Overcast,240,2013-03-17 06:28:00
2:53 AM,30.0,25.0,82,30.06,10.0,West,5.8,-,N/A,,Overcast,260,2013-03-17 06:53:00
3:22 AM,30.2,26.6,86,30.05,10.0,WSW,6.9,-,N/A,,Overcast,250,2013-03-17 07:22:00
3:53 AM,30.0,27.0,88,30.07,10.0,West,8.1,-,N/A,,Overcast,280,2013-03-17 07:53:00
4:19 AM,30.2,26.6,86,30.05,10.0,West,8.1,-,N/A,,Overcast,270,2013-03-17 08:19:00
4:53 AM,30.9,27.0,85,30.07,10.0,West,10.4,-,N/A,,Overcast,270,2013-03-17 08:53:00
5:10 AM,30.2,26.6,86,30.05,10.0,WNW,11.5,-,N/A,,Overcast,300,2013-03-17 09:10:00
5:53 AM,30.9,24.1,76,30.08,10.0,WNW,6.9,-,N/A,,Overcast,300,2013-03-17 09:53:00
6:53 AM,30.9,25.0,79,30.11,10.0,WNW,9.2,-,N/A,,Overcast,300,2013-03-17 10:53:00
7:53 AM,30.9,25.0,79,30.14,10.0,NNW,15.0,-,N/A,,Overcast,330,2013-03-17 11:53:00
8:53 AM,28.9,25.0,85,30.17,10.0,North,15.0,-,N/A,,Overcast,10,2013-03-17 12:53:00
9:53 AM,30.0,19.0,64,30.20,10.0,North,16.1,20.7,N/A,,Overcast,10,2013-03-17 13:53:00
10:53 AM,28.9,21.9,75,30.24,10.0,North,13.8,-,N/A,,Overcast,10,2013-03-17 14:53:00
11:41 AM,28.4,21.2,74,30.22,10.0,NNE,13.8,-,N/A,,Overcast,20,2013-03-17 15:41:00
11:53 AM,30.0,21.9,72,30.24,10.0,NNE,11.5,-,N/A,,Overcast,20,2013-03-17 15:53:00
12:53 PM,30.0,23.0,75,30.25,10.0,NNE,13.8,-,0.04,,Mostly Cloudy,30,2013-03-17 16:53:00
1:08 PM,30.2,21.2,69,30.22,10.0,NNE,12.7,-,0.02,,Scattered Clouds,30,2013-03-17 17:08:00
1:53 PM,30.9,23.0,72,30.24,10.0,NNE,12.7,-,0.04,,Clear,30,2013-03-17 17:53:00
2:53 PM,30.9,21.9,69,30.23,10.0,NNE,13.8,-,N/A,,Clear,30,2013-03-17 18:53:00
3:53 PM,30.9,21.9,69,30.23,10.0,NNE,13.8,-,N/A,,Clear,30,2013-03-17 19:53:00
4:53 PM,30.0,21.0,69,30.22,10.0,NE,15.0,-,N/A,,Clear,40,2013-03-17 20:53:00
5:53 PM,30.0,21.0,69,30.22,10.0,NNE,16.1,-,N/A,,Clear,30,2013-03-17 21:53:00
6:53 PM,28.9,21.0,72,30.23,10.0,NE,16.1,-,N/A,,Clear,40,2013-03-17 22:53:00
7:53 PM,28.9,19.9,69,30.22,10.0,NE,12.7,-,N/A,,Clear,50,2013-03-17 23:53:00
8:53 PM,28.0,19.9,72,30.24,10.0,ENE,10.4,-,N/A,,Clear,60,2013-03-18 00:53:00
9:53 PM,28.0,19.0,69,30.24,10.0,ENE,10.4,-,N/A,,Clear,60,2013-03-18 01:53:00
10:53 PM,28.0,18.0,66,30.23,10.0,ENE,11.5,-,N/A,,Clear,70,2013-03-18 02:53:00
11:53 PM,28.0,18.0,66,30.20,10.0,ENE,9.2,-,N/A,,Clear,70,2013-03-18 03:53:00